Date,TemperatureHighF,TemperatureAvgF,TemperatureLowF,DewpointHighF,DewpointAvgF,DewpointLowF,HumidityHigh,HumidityAvg,HumidityLow,PressureMaxIn,PressureMinIn,WindSpeedMaxMPH,WindSpeedAvgMPH,GustSpeedMaxMPH,PrecipitationSumIn
2013-1-1,46.9,39.5,31.6,28.4,14.8,5.4,55,37,27,30.24,30.00,8,6,14,0.00
2013-1-2,49.1,34.8,26.4,15.6,9.0,1.8,47,34,24,30.30,30.18,5,2,11,0.00
2013-1-3,42.1,33.5,23.5,14.2,9.8,1.6,53,38,28,30.41,30.27,10,4,16,0.00
2013-1-4,37.6,35.0,32.5,99.9,19.5,9.5,64,52,31,30.41,28.35,4,1,9,0.00
2013-1-5,56.8,42.0,32.9,29.8,21.3,12.0,65,46,22,30.33,30.18,9,4,14,0.00
2013-1-6,56.5,39.9,30.0,17.4,11.5,6.6,50,33,17,30.41,30.30,5,3,11,0.00
2013-1-7,51.4,37.3,25.0,19.8,12.6,5.2,51,36,26,30.33,30.06,7,3,12,0.51
2013-1-8,50.7,44.2,36.3,44.2,33.3,15.3,85,67,40,30.06,29.94,12,5,18,0.51
2013-1-9,48.4,46.5,44.6,43.5,39.8,35.2,85,78,67,30.15,29.94,15,8,28,0.40
2013-1-10,60.1,49.2,42.8,44.4,35.3,25.0,84,62,32,30.03,29.91,10,3,16,0.00
2013-1-11,70.2,54.2,40.3,43.0,30.3,23.9,63,43,23,29.94,29.79,8,3,17,0.00
2013-1-12,55.0,47.8,33.3,41.7,20.1,6.6,63,34,24,30.00,29.82,11,6,20,0.00
2013-1-13,35.4,29.2,25.3,7.2,5.0,3.2,41,35,30,30.21,30.00,11,6,18,0.00
2013-1-14,43.0,30.4,21.4,7.7,3.4,0.0,41,32,20,30.27,30.15,10,6,15,0.00
2013-1-15,37.6,30.7,23.2,7.5,4.2,-0.4,39,32,24,30.24,30.12,8,5,17,0.00
2013-1-16,53.1,34.7,17.2,15.4,6.8,-0.9,47,33,18,30.30,30.15,13,4,23,0.00
2013-1-17,59.2,49.8,35.8,19.2,13.8,8.2,37,24,19,30.47,30.41,7,5,14,0.00
2013-1-18,64.4,44.6,25.7,22.8,14.7,7.9,49,32,18,30.47,30.24,6,3,13,0.00
2013-1-19,69.4,47.6,29.5,24.8,15.1,7.5,47,29,15,30.24,30.12,7,2,15,0.00
2013-1-20,69.1,48.3,31.5,25.9,15.2,6.6,49,29,15,30.24,30.09,4,3,10,0.00
2013-1-21,53.2,40.4,33.3,19.2,13.2,7.9,51,33,21,30.30,30.15,8,4,13,0.00
2013-1-22,67.5,48.9,31.5,32.9,20.0,8.6,46,33,22,30.30,30.15,6,3,13,0.00
2013-1-23,75.0,54.8,38.8,54.3,31.4,21.0,81,46,21,30.27,30.15,5,2,10,0.00
2013-1-24,80.6,61.2,42.4,52.2,30.8,16.2,75,37,15,30.24,30.06,5,3,13,0.00
2013-1-25,61.0,53.8,46.8,43.5,26.3,16.3,63,36,24,30.18,30.06,9,4,14,0.00
2013-1-26,66.2,52.1,38.8,40.3,26.2,17.2,59,38,25,30.18,30.03,6,3,10,0.00
2013-1-27,75.4,61.4,53.2,51.8,40.6,30.4,74,51,22,30.06,29.91,7,4,15,0.00
2013-1-28,79.0,66.4,54.7,55.2,41.3,32.4,71,44,21,30.00,29.82,10,5,23,0.00
2013-1-29,69.6,64.8,61.5,52.7,42.0,20.7,64,47,17,29.85,29.68,12,5,21,0.00
2013-1-30,53.4,44.9,30.2,10.9,5.4,-4.9,23,19,18,30.15,30.09,10,5,19,0.00
2013-1-31,68.5,44.6,21.9,19.0,6.6,-5.4,33,22,15,30.24,30.12,10,3,17,0.00
2013-2-1,68.5,50.6,34.0,20.7,13.3,2.7,40,23,15,30.33,30.12,8,4,15,0.00
2013-2-2,64.2,48.1,33.4,28.8,15.3,4.5,62,29,16,30.33,30.15,15,5,26,0.00
2013-2-3,68.2,50.7,29.3,27.1,16.6,6.8,41,27,15,30.36,29.97,12,4,22,0.00
2013-2-4,76.6,61.6,48.7,33.3,24.9,10.0,43,26,14,29.97,29.82,8,5,16,0.00
2013-2-5,74.1,48.3,34.2,26.6,15.7,9.3,40,28,14,30.06,29.94,4,2,9,0.00
2013-2-6,78.6,63.0,47.1,35.4,25.8,19.0,50,26,16,30.00,29.82,6,3,14,0.00
2013-2-7,70.7,58.5,47.3,52.3,28.6,18.5,74,36,17,30.18,29.88,12,5,20,0.00
2013-2-8,63.9,50.9,38.7,19.8,15.0,8.6,34,25,16,30.27,30.09,9,6,14,0.00
2013-2-9,69.4,63.8,61.2,99.9,38.2,34.0,44,35,29,29.85,27.67,13,10,25,0.00
2013-2-18,69.8,65.0,55.9,19.9,17.0,11.8,17,16,14,30.03,29.91,14,11,24,0.00
2013-2-25,60.1,43.8,38.1,34.7,20.1,11.5,48,39,31,29.68,29.56,17,9,30,0.00
2013-3-29,81.9,74.5,63.9,39.4,35.8,32.9,36,25,20,30.09,30.00,10,6,20,0.00
2013-3-30,91.0,71.5,53.8,50.4,35.9,21.7,63,32,12,30.09,29.85,11,4,20,0.00
2013-3-31,68.9,64.6,61.9,40.1,36.6,29.8,43,36,24,30.00,29.85,15,4,26,0.00
2013-4-1,86.0,80.6,71.1,37.2,31.3,23.2,22,17,13,30.06,29.85,10,7,21,0.00
2013-4-2,72.3,55.1,42.1,44.6,34.4,26.8,78,48,22,30.03,29.88,13,8,26,0.24
2013-4-3,46.6,42.5,39.6,35.6,29.0,24.6,77,59,42,30.18,29.97,12,8,21,0.04
2013-4-4,68.5,50.8,39.2,27.1,23.9,19.6,54,37,17,30.21,30.06,9,6,17,0.00
2013-4-5,75.0,55.3,33.3,39.4,26.5,20.1,68,38,16,30.21,29.97,10,4,18,0.00
2013-4-6,87.6,67.5,46.9,36.5,28.8,24.4,48,26,13,29.97,29.76,9,5,19,0.00
2013-4-7,92.7,72.5,51.3,48.7,35.2,24.3,63,31,12,29.85,29.65,8,5,17,0.00
2013-4-8,86.5,72.0,59.0,52.2,40.6,24.3,62,36,16,29.74,29.56,12,6,22,0.00
2013-4-9,93.9,74.5,46.0,46.9,36.2,8.1,47,29,11,29.76,29.53,21,10,32,0.00
2013-4-10,53.8,41.8,33.8,99.9,23.8,-99.9,68,40,25,29.94,27.88,17,10,37,0.20
2013-4-11,66.0,51.7,36.0,29.3,21.4,15.4,66,34,18,27.93,27.76,4,1,11,0.00
2013-4-12,79.5,60.7,41.9,32.2,25.5,19.4,54,29,15,27.93,27.76,9,3,17,0.00
2013-4-13,81.9,66.9,48.2,29.7,25.1,20.1,38,22,14,27.88,27.70,10,5,19,0.00
2013-4-14,92.7,73.1,51.4,41.4,29.8,19.0,49,23,12,27.76,27.52,12,5,23,0.00
2013-4-15,97.3,78.2,55.8,39.0,26.8,14.7,31,16,11,27.70,27.58,6,3,15,0.00
2013-4-16,90.9,76.7,61.7,46.9,37.2,20.3,48,26,14,27.85,27.70,11,5,19,0.00
2013-4-17,93.2,79.5,69.4,54.7,45.2,35.4,53,33,14,27.79,27.55,15,9,25,0.00
2013-4-18,74.7,51.8,42.4,99.9,27.8,9.1,54,31,17,30.12,27.58,17,10,34,0.08
2013-4-19,68.2,52.9,34.9,19.6,14.0,8.1,41,23,15,30.24,30.06,6,3,11,0.00
2013-4-20,75.4,59.0,39.4,21.2,15.6,6.6,30,19,13,30.06,29.82,13,7,23,0.00
2013-4-21,71.8,55.7,48.7,34.2,22.3,11.3,46,29,16,30.06,29.88,8,6,15,0.00